User: anonymous   Login
Location: La Comballaz
(46.3780°N, 7.0817°E)
Time: 11:35:24
(UTC+00:00)
Language:

STARLINK-52 - Orbit

View from above orbital plane
View from above orbital plane
View from above satellite
View from above satellite

Ground track
Ground track

The orbit data is extracted from the following two-line orbital elements,

1 44259U 19029AA  20185.41667824  .00043167  00000-0  44532-3 0  9991
2 44259  53.0017  34.4719 0001125  74.3139 331.2129 15.64387053 62838
Epoch (UTC): 03 July 2020 10:00:01
Eccentricity: 0.0001125
inclination: 53.0017°
perigee height: 374 km
apogee height: 376 km
right ascension of ascending node: 34.4719°
argument of perigee: 74.3139°
revolutions per day: 15.64387053
mean anomaly at epoch: 331.2129°
orbit number at epoch: 6283

The dashed part of the orbit path shows where the satellite is in the earth's shadow,  

DLR